Regional Weather Roundup
Issued by NWS Goodland, KS

Home | Current Version | Previous Version | Text Only | Print | Product List | Glossary Off
Versions: 1 2 3 4 5 6 7 8 9 10 11 12 13 14 15 16 17 18 19 20 21 22 23 24 25 26 27 28 29 30 31 32 33 34 35 36 37 38 39 40 41 42 43 44 45 46 47 48 49 50

000
ASUS43 KGLD 062259
RWRGLD

GOODLAND FORECAST AREA HOURLY WEATHER ROUNDUP
NATIONAL WEATHER SERVICE GOODLAND KS
400 PM MST TUE DEC 06 2016

...OFFICIAL OBSERVATIONS...

CITY           SKY/WX    TMP DP  RH WIND       PRES   REMARKS
GOODLAND KS    CLEAR     27  -3  27 S6        29.96R
HILL CITY KS   CLEAR     31   4  31 NW3       30.04S
IMPERIAL NEB   MOCLDY    28   1  31 CALM      29.97F
MCCOOK NEB     CLEAR     31   2  29 W3        30.01S
AKRON CO       CLOUDY    25 -13  18 SE7       29.89S
BURLINGTON CO  CLEAR     31  -8  18 SE8       29.93S
LIMON CO       CLEAR     23  -4  30 SE13      29.86S WCI  11
$$

...UNOFFICIAL OBSERVATIONS...

CITY           SKY/WX    TMP DP  RH WIND       PRES   REMARKS
COLBY KS       CLEAR     32   3  29 CALM      30.00R
LENORA KS        N/A     31  32 100 MISG        N/A
NORTON KS      CLEAR     30  -2  24 W6        30.01F
SHARON SPRINGS   N/A     32   1  27 CALM        N/A
TRENTON NEB      N/A     29  32 100 CALM        N/A
KIT CARSON CO    N/A     28   2  33 MISG        N/A
YUMA CO        MOCLDY    28  -8  20 E3        29.92R
$$



USA.gov is the U.S. government's official web portal to all federal, state and local government web resources and services.